Time,TemperatureF,DewpointF,PressureIn,WindDirection,WindDirectionDegrees,WindSpeedMPH,WindSpeedGustMPH,Humidity,HourlyPrecipIn,Conditions,Clouds,dailyrainin,SolarRadiationWatts/m^2,SoftwareType,DateUTC
2013-08-04 00:03:00,75.0,71.0,-100.00,East,101,1.0,3.0,88,0.00,,,0.59,0.000000,,2013-08-04 04:03:00,
2013-08-04 00:12:00,75.0,71.0,-100.00,East,101,1.0,3.0,88,0.00,,,0.59,0.000000,,2013-08-04 04:12:00,
2013-08-04 00:32:00,74.0,72.0,-100.00,SSE,148,1.0,2.0,93,0.00,,,0.59,0.000000,,2013-08-04 04:32:00,
2013-08-04 00:42:00,74.0,72.0,-100.00,SSE,148,1.0,2.0,93,0.00,,,0.59,0.000000,,2013-08-04 04:42:00,
2013-08-04 00:52:00,74.0,72.0,-100.00,SSE,148,1.0,2.0,93,0.00,,,0.59,0.000000,,2013-08-04 04:52:00,
2013-08-04 01:02:00,74.0,72.0,-100.00,SSE,148,1.0,2.0,93,0.00,,,0.59,0.000000,,2013-08-04 05:02:00,
2013-08-04 01:12:00,74.0,72.0,-100.00,SSE,148,1.0,2.0,93,0.00,,,0.59,0.000000,,2013-08-04 05:12:00,
2013-08-04 01:32:00,74.0,70.0,-100.00,NE,51,3.0,7.0,88,0.00,,,0.59,0.000000,,2013-08-04 05:32:00,
2013-08-04 01:42:00,74.0,70.0,-100.00,NE,51,3.0,7.0,88,0.00,,,0.59,0.000000,,2013-08-04 05:42:00,
2013-08-04 01:52:00,74.0,70.0,-100.00,NE,51,3.0,7.0,88,0.00,,,0.59,0.000000,,2013-08-04 05:52:00,
2013-08-04 02:02:00,74.0,70.0,-100.00,NE,51,3.0,7.0,88,0.00,,,0.59,0.000000,,2013-08-04 06:02:00,
2013-08-04 02:12:00,74.0,70.0,-100.00,NE,51,3.0,7.0,88,0.00,,,0.59,0.000000,,2013-08-04 06:12:00,
2013-08-04 02:43:00,73.0,70.0,-100.00,East,80,4.0,8.0,90,0.00,,,0.59,0.000000,,2013-08-04 06:43:00,
2013-08-04 02:52:00,73.0,70.0,-100.00,East,80,4.0,8.0,90,0.00,,,0.59,0.000000,,2013-08-04 06:52:00,
2013-08-04 03:02:00,73.0,70.0,-100.00,East,80,4.0,8.0,90,0.00,,,0.59,0.000000,,2013-08-04 07:02:00,
2013-08-04 03:12:00,73.0,70.0,-100.00,East,80,4.0,8.0,90,0.00,,,0.59,0.000000,,2013-08-04 07:12:00,
2013-08-04 03:43:00,72.0,68.0,-100.00,ENE,68,4.0,6.0,88,0.00,,,0.58,0.000000,,2013-08-04 07:43:00,
2013-08-04 03:53:00,72.0,68.0,-100.00,ENE,68,4.0,6.0,88,0.00,,,0.58,0.000000,,2013-08-04 07:53:00,
2013-08-04 04:02:00,72.0,68.0,-100.00,ENE,68,4.0,6.0,88,0.00,,,0.58,0.000000,,2013-08-04 08:02:00,
2013-08-04 04:12:00,72.0,68.0,-100.00,ENE,68,4.0,6.0,88,0.00,,,0.58,0.000000,,2013-08-04 08:12:00,
2013-08-04 04:43:00,72.0,69.0,-100.00,ENE,62,4.0,7.0,89,0.00,,,-99.99,0.000000,,2013-08-04 08:43:00,
2013-08-04 04:53:00,72.0,69.0,-100.00,ENE,62,4.0,7.0,89,0.00,,,-99.99,0.000000,,2013-08-04 08:53:00,
2013-08-04 05:02:00,72.0,69.0,-100.00,ENE,62,4.0,7.0,89,0.00,,,-99.99,0.000000,,2013-08-04 09:02:00,
2013-08-04 05:12:00,72.0,69.0,-100.00,ENE,62,4.0,7.0,89,0.00,,,-99.99,0.000000,,2013-08-04 09:12:00,
2013-08-04 05:32:00,71.0,68.0,-100.00,ENE,67,4.0,5.0,91,0.00,,,0.57,0.000000,,2013-08-04 09:32:00,
2013-08-04 05:43:00,71.0,68.0,-100.00,ENE,67,4.0,5.0,91,0.00,,,0.57,0.000000,,2013-08-04 09:43:00,
2013-08-04 05:52:00,71.0,68.0,-100.00,ENE,67,4.0,5.0,91,0.00,,,0.57,0.000000,,2013-08-04 09:52:00,
2013-08-04 06:02:00,71.0,68.0,-100.00,ENE,67,4.0,5.0,91,0.00,,,0.57,0.000000,,2013-08-04 10:02:00,
2013-08-04 06:12:00,71.0,68.0,-100.00,ENE,67,4.0,5.0,91,0.00,,,0.57,0.000000,,2013-08-04 10:12:00,
2013-08-04 06:32:00,71.0,68.0,-100.00,East,88,3.0,6.0,89,0.00,,,0.30,0.000000,,2013-08-04 10:32:00,
2013-08-04 06:43:00,71.0,68.0,-100.00,East,88,3.0,6.0,89,0.00,,,0.30,0.000000,,2013-08-04 10:43:00,
2013-08-04 06:53:00,71.0,68.0,-100.00,East,88,3.0,6.0,89,0.00,,,0.30,0.000000,,2013-08-04 10:53:00,
2013-08-04 07:02:00,71.0,68.0,-100.00,East,88,3.0,6.0,89,0.00,,,0.30,0.000000,,2013-08-04 11:02:00,
2013-08-04 07:12:00,71.0,68.0,-100.00,East,88,3.0,6.0,89,0.00,,,0.30,0.000000,,2013-08-04 11:12:00,
2013-08-04 07:32:00,70.0,67.0,-100.00,East,98,5.0,8.0,89,0.00,,,0.26,1.000000,,2013-08-04 11:32:00,
2013-08-04 07:42:00,70.0,67.0,-100.00,East,98,5.0,8.0,89,0.00,,,0.26,1.000000,,2013-08-04 11:42:00,
2013-08-04 07:53:00,70.0,67.0,-100.00,East,98,5.0,8.0,89,0.00,,,0.26,1.000000,,2013-08-04 11:53:00,
2013-08-04 08:02:00,70.0,67.0,-100.00,East,98,5.0,8.0,89,0.00,,,0.26,1.000000,,2013-08-04 12:02:00,
2013-08-04 08:12:00,70.0,67.0,-100.00,East,98,5.0,8.0,89,0.00,,,0.26,1.000000,,2013-08-04 12:12:00,
2013-08-04 08:33:00,70.0,66.0,-100.00,East,93,4.0,9.0,87,0.00,,,0.06,24.000000,,2013-08-04 12:33:00,
2013-08-04 08:43:00,70.0,66.0,-100.00,East,93,4.0,9.0,87,0.00,,,0.06,24.000000,,2013-08-04 12:43:00,
2013-08-04 08:53:00,70.0,66.0,-100.00,East,93,4.0,9.0,87,0.00,,,0.06,24.000000,,2013-08-04 12:53:00,
2013-08-04 09:02:00,70.0,66.0,-100.00,East,93,4.0,9.0,87,0.00,,,0.06,24.000000,,2013-08-04 13:02:00,
2013-08-04 09:12:00,70.0,66.0,-100.00,East,93,4.0,9.0,87,0.00,,,0.06,24.000000,,2013-08-04 13:12:00,
2013-08-04 09:32:00,72.0,67.0,-100.00,East,101,5.0,9.0,85,0.00,,,0.01,149.000000,,2013-08-04 13:32:00,
2013-08-04 09:43:00,72.0,67.0,-100.00,East,101,5.0,9.0,85,0.00,,,0.01,149.000000,,2013-08-04 13:43:00,
2013-08-04 09:52:00,72.0,67.0,-100.00,East,101,5.0,9.0,85,0.00,,,0.01,149.000000,,2013-08-04 13:52:00,
2013-08-04 10:02:00,72.0,67.0,-100.00,East,101,5.0,9.0,85,0.00,,,0.01,149.000000,,2013-08-04 14:02:00,
2013-08-04 10:12:00,72.0,67.0,-100.00,East,101,5.0,9.0,85,0.00,,,0.01,149.000000,,2013-08-04 14:12:00,
2013-08-04 10:33:00,70.0,65.0,-100.00,ESE,113,4.0,11.0,83,0.00,,,0.00,84.000000,,2013-08-04 14:33:00,
2013-08-04 10:43:00,70.0,65.0,-100.00,ESE,113,4.0,11.0,83,0.00,,,0.00,84.000000,,2013-08-04 14:43:00,
2013-08-04 10:53:00,70.0,65.0,-100.00,ESE,113,4.0,11.0,83,0.00,,,0.00,84.000000,,2013-08-04 14:53:00,
2013-08-04 11:02:00,70.0,65.0,-100.00,ESE,113,4.0,11.0,83,0.00,,,0.00,84.000000,,2013-08-04 15:02:00,
2013-08-04 11:12:00,70.0,65.0,-100.00,ESE,113,4.0,11.0,83,0.00,,,0.00,84.000000,,2013-08-04 15:12:00,
2013-08-04 11:32:00,70.0,65.0,-100.00,East,95,3.0,6.0,85,0.00,,,0.00,36.000000,,2013-08-04 15:32:00,
2013-08-04 11:43:00,70.0,65.0,-100.00,East,95,3.0,6.0,85,0.00,,,0.00,36.000000,,2013-08-04 15:43:00,
2013-08-04 11:53:00,70.0,65.0,-100.00,East,95,3.0,6.0,85,0.00,,,0.00,36.000000,,2013-08-04 15:53:00,
2013-08-04 12:02:00,70.0,65.0,-100.00,East,95,3.0,6.0,85,0.00,,,0.00,36.000000,,2013-08-04 16:02:00,
2013-08-04 12:12:00,70.0,65.0,-100.00,East,95,3.0,6.0,85,0.00,,,0.00,36.000000,,2013-08-04 16:12:00,
2013-08-04 12:33:00,69.0,65.0,-100.00,SW,220,3.0,6.0,87,0.00,,,0.00,17.000000,,2013-08-04 16:33:00,
2013-08-04 12:43:00,69.0,65.0,-100.00,SW,220,3.0,6.0,87,0.00,,,0.00,17.000000,,2013-08-04 16:43:00,
2013-08-04 12:53:00,69.0,65.0,-100.00,SW,220,3.0,6.0,87,0.00,,,0.00,17.000000,,2013-08-04 16:53:00,
2013-08-04 13:02:00,69.0,65.0,-100.00,SW,220,3.0,6.0,87,0.00,,,0.00,17.000000,,2013-08-04 17:02:00,
2013-08-04 13:12:00,69.0,65.0,-100.00,SW,220,3.0,6.0,87,0.00,,,0.00,17.000000,,2013-08-04 17:12:00,
2013-08-04 13:32:00,67.0,66.0,-100.00,NNE,15,4.0,8.0,97,0.29,,,0.29,19.000000,,2013-08-04 17:32:00,
2013-08-04 13:43:00,67.0,66.0,-100.00,NNE,15,4.0,8.0,97,0.29,,,0.29,19.000000,,2013-08-04 17:43:00,
2013-08-04 13:53:00,67.0,66.0,-100.00,NNE,15,4.0,8.0,97,0.29,,,0.29,19.000000,,2013-08-04 17:53:00,
2013-08-04 14:02:00,67.0,66.0,-100.00,NNE,15,4.0,8.0,97,0.29,,,0.29,19.000000,,2013-08-04 18:02:00,
2013-08-04 14:12:00,67.0,66.0,-100.00,NNE,15,4.0,8.0,97,0.29,,,0.29,19.000000,,2013-08-04 18:12:00,
2013-08-04 14:33:00,68.0,67.0,-100.00,East,81,4.0,6.0,98,0.10,,,0.39,67.000000,,2013-08-04 18:33:00,
2013-08-04 14:43:00,68.0,67.0,-100.00,East,81,4.0,6.0,98,0.10,,,0.39,67.000000,,2013-08-04 18:43:00,
2013-08-04 14:52:00,68.0,67.0,-100.00,East,81,4.0,6.0,98,0.10,,,0.39,67.000000,,2013-08-04 18:52:00,
2013-08-04 15:02:00,68.0,67.0,-100.00,East,81,4.0,6.0,98,0.10,,,0.39,67.000000,,2013-08-04 19:02:00,
2013-08-04 15:12:00,68.0,67.0,-100.00,East,81,4.0,6.0,98,0.10,,,0.39,67.000000,,2013-08-04 19:12:00,
2013-08-04 15:33:00,69.0,68.0,-100.00,ESE,123,4.0,7.0,98,0.06,,,0.45,101.000000,,2013-08-04 19:33:00,
2013-08-04 15:44:00,69.0,68.0,-100.00,ESE,123,4.0,7.0,98,0.06,,,0.45,101.000000,,2013-08-04 19:44:00,
2013-08-04 15:53:00,69.0,68.0,-100.00,ESE,123,4.0,7.0,98,0.06,,,0.45,101.000000,,2013-08-04 19:53:00,
2013-08-04 16:02:00,69.0,68.0,-100.00,ESE,123,4.0,7.0,98,0.06,,,0.45,101.000000,,2013-08-04 20:02:00,
2013-08-04 16:12:00,69.0,68.0,-100.00,ESE,123,4.0,7.0,98,0.06,,,0.45,101.000000,,2013-08-04 20:12:00,
2013-08-04 16:33:00,69.0,68.0,-100.00,SE,124,6.0,9.0,98,0.03,,,0.48,144.000000,,2013-08-04 20:33:00,
2013-08-04 16:43:00,69.0,68.0,-100.00,SE,124,6.0,9.0,98,0.03,,,0.48,144.000000,,2013-08-04 20:43:00,
2013-08-04 16:53:00,69.0,68.0,-100.00,SE,124,6.0,9.0,98,0.03,,,0.48,144.000000,,2013-08-04 20:53:00,
2013-08-04 17:02:00,69.0,68.0,-100.00,SE,124,6.0,9.0,98,0.03,,,0.48,144.000000,,2013-08-04 21:02:00,
2013-08-04 17:12:00,69.0,68.0,-100.00,SE,124,6.0,9.0,98,0.03,,,0.48,144.000000,,2013-08-04 21:12:00,
2013-08-04 17:43:00,71.0,70.0,-100.00,ESE,123,5.0,10.0,97,0.01,,,0.49,231.000000,,2013-08-04 21:43:00,
2013-08-04 17:53:00,71.0,70.0,-100.00,ESE,123,5.0,10.0,97,0.01,,,0.49,231.000000,,2013-08-04 21:53:00,
2013-08-04 18:02:00,71.0,70.0,-100.00,ESE,123,5.0,10.0,97,0.01,,,0.49,231.000000,,2013-08-04 22:02:00,
2013-08-04 18:12:00,71.0,70.0,-100.00,ESE,123,5.0,10.0,97,0.01,,,0.49,231.000000,,2013-08-04 22:12:00,
2013-08-04 18:32:00,72.0,71.0,-100.00,SE,125,4.0,8.0,96,0.00,,,0.49,193.000000,,2013-08-04 22:32:00,
2013-08-04 18:43:00,72.0,71.0,-100.00,SE,125,4.0,8.0,96,0.00,,,0.49,193.000000,,2013-08-04 22:43:00,
2013-08-04 18:53:00,72.0,71.0,-100.00,SE,125,4.0,8.0,96,0.00,,,0.49,193.000000,,2013-08-04 22:53:00,
2013-08-04 19:02:00,72.0,71.0,-100.00,SE,125,4.0,8.0,96,0.00,,,0.49,193.000000,,2013-08-04 23:02:00,
2013-08-04 19:12:00,72.0,71.0,-100.00,SE,125,4.0,8.0,96,0.00,,,0.49,193.000000,,2013-08-04 23:12:00,
2013-08-04 19:32:00,71.0,70.0,-100.00,East,92,4.0,7.0,97,0.01,,,0.50,90.000000,,2013-08-04 23:32:00,
2013-08-04 19:43:00,71.0,70.0,-100.00,East,92,4.0,7.0,97,0.01,,,0.50,90.000000,,2013-08-04 23:43:00,
2013-08-04 19:53:00,71.0,70.0,-100.00,East,92,4.0,7.0,97,0.01,,,0.50,90.000000,,2013-08-04 23:53:00,
2013-08-04 20:02:00,71.0,70.0,-100.00,East,92,4.0,7.0,97,0.01,,,0.50,90.000000,,2013-08-05 00:02:00,
2013-08-04 20:12:00,71.0,70.0,-100.00,East,92,4.0,7.0,97,0.01,,,0.50,90.000000,,2013-08-05 00:12:00,
2013-08-04 20:42:00,71.0,70.0,-100.00,East,97,4.0,8.0,98,0.00,,,0.50,43.000000,,2013-08-05 00:42:00,
2013-08-04 20:53:00,71.0,70.0,-100.00,East,97,4.0,8.0,98,0.00,,,0.50,43.000000,,2013-08-05 00:53:00,
2013-08-04 21:02:00,71.0,70.0,-100.00,East,97,4.0,8.0,98,0.00,,,0.50,43.000000,,2013-08-05 01:02:00,
2013-08-04 21:12:00,71.0,70.0,-100.00,East,97,4.0,8.0,98,0.00,,,0.50,43.000000,,2013-08-05 01:12:00,
2013-08-04 21:33:00,71.0,70.0,-100.00,ESE,110,2.0,7.0,98,0.00,,,0.50,13.000000,,2013-08-05 01:33:00,
2013-08-04 21:42:00,71.0,70.0,-100.00,ESE,110,2.0,7.0,98,0.00,,,0.50,13.000000,,2013-08-05 01:42:00,
2013-08-04 21:52:00,71.0,70.0,-100.00,ESE,110,2.0,7.0,98,0.00,,,0.50,13.000000,,2013-08-05 01:52:00,
2013-08-04 22:02:00,71.0,70.0,-100.00,ESE,110,2.0,7.0,98,0.00,,,0.50,13.000000,,2013-08-05 02:02:00,
2013-08-04 22:12:00,71.0,70.0,-100.00,ESE,110,2.0,7.0,98,0.00,,,0.50,13.000000,,2013-08-05 02:12:00,
2013-08-04 22:33:00,70.0,69.0,-100.00,ESE,121,4.0,6.0,98,0.00,,,0.50,2.000000,,2013-08-05 02:33:00,
2013-08-04 22:43:00,70.0,69.0,-100.00,ESE,121,4.0,6.0,98,0.00,,,0.50,2.000000,,2013-08-05 02:43:00,
2013-08-04 22:53:00,70.0,69.0,-100.00,ESE,121,4.0,6.0,98,0.00,,,0.50,2.000000,,2013-08-05 02:53:00,
2013-08-04 23:02:00,70.0,69.0,-100.00,ESE,121,4.0,6.0,98,0.00,,,0.50,2.000000,,2013-08-05 03:02:00,
2013-08-04 23:12:00,70.0,69.0,-100.00,ESE,121,4.0,6.0,98,0.00,,,0.50,2.000000,,2013-08-05 03:12:00,
2013-08-04 23:32:00,70.0,70.0,-100.00,SE,128,5.0,10.0,99,0.00,,,0.50,0.000000,,2013-08-05 03:32:00,
2013-08-04 23:42:00,70.0,70.0,-100.00,SE,128,5.0,10.0,99,0.00,,,0.50,0.000000,,2013-08-05 03:42:00,
2013-08-04 23:53:00,70.0,70.0,-100.00,SE,128,5.0,10.0,99,0.00,,,0.50,0.000000,,2013-08-05 03:53:00,